DELTA 1 DEB, 14509

Orbit data source: Space-Track

DELTA 1 DEB, 14509 is space debris in SSO originally from a launch on Thu, 29 Jul 1976 UTC launched from the Air Force Western Test Range (AFWTR). Debris objects in space refer to the collection of defunct objects orbiting the Earth. Examples of debris include non-operational satellites, rocket bodies, and fragments generated from explosions, collisions, or faulty payload assembly.

Loading next visibility...
Identifier
14509, 1976-077EQ
Orbit
SSO
Country
Flag of USUS
Related business
Manufacturer
Unknown
Mission
Spacecraft
Bus & Motor
Unknown
Mass
Unknown
Launch date (UTC)
1976-07-29 (50 years ago)
Launch vehicle
Unknown
Launch site
Air Force Western Test Range (AFWTR)
Object type
Payload
Rocket body
Debris
Shape & HBR
Unknown shape, 0.1 m
Radar Cross Section
Medium (>0.1 m² and <1 m²)

Expand to show TLE details & history
Last TLE update: 23 hours ago

TLE from 23 hours ago
0 DELTA 1 DEB
1 14509U 76077EQ  26255.39914200  .00000040  00000-0  84576-3 0  9991
2 14509 102.3790 217.3712 0158032  95.6897  56.4489 12.12387528943213
Epoch: 2026-09-12T09:34Z
TLE epoch observation values (Epoch: 2026-09-12T09:34:45.868Z)
Latitude
25.71024°
Longitude
-91.69208°
Altitude
1,560.114 km
Speed
7.12 km/s
True Right ascension
02h 53m 37s
True Declination
25° 35' 23"
Sunlit
Object was in daylight at epoch
Visualization orbit readout
Latitude
Unknown
Longitude
Unknown
Altitude
Unknown
Speed
Unknown
Apparent Right ascension
Unknown
Apparent Declination
Unknown
Sunlit
N/A
Visualization observer readout
Local Sidereal Time
01:02:31
Azimuth
Unknown
Elevation
Unknown
Doppler factor
Unknown
Orbital elements
Apogee altitude
1,749.956 km
Perigee altitude
1,497.052 km
Semi-major axis
8,001.641 km
Eccentricity
0.0158
Inclination
102.379°
RAAN
217.3712°
Arg. of periapsis
95.6897°
True anomaly
57.97457°
Mean anomaly
56.4489°
Eccentric anomaly
57.21008°
Mean motion
3.03232 °/min
Orbital period
118.72 mins
BSTAR
0.00084576
Loading maneuver chart data...
Computing Atmospheric mass density...
Loading historical data...
Loading historical data...
Loading historical data...
Loading historical data...
Loading historical data...
Loading historical data...
Loading historical data...

Documentation

Showing up to 5 results
|